TimeBST,TemperatureF,Dew PointF,Humidity,Sea Level PressureIn,VisibilityMPH,Wind Direction,Wind SpeedMPH,Gust SpeedMPH,PrecipitationIn,Events,Conditions,WindDirDegrees,DateUTC
1:00 AM,58,58,98,30.03,1,SE,15.0,,,Rain,Heavy Rain,130,2012-10-08 00:00:00
3:50 AM,60.8,60.8,100,29.95,0.2,SSE,10.4,-,N/A,Fog,Light Drizzle,160,2012-10-08 02:50:00
4:00 AM,60,60,100,29.96,0,SSE,10.4,,,Rain,Light Drizzle,160,2012-10-08 03:00:00
4:20 AM,60.8,60.8,100,29.95,0.5,SSE,10.4,-,N/A,Fog-Rain,Rain,160,2012-10-08 03:20:00
4:50 AM,60.8,60.8,100,29.95,0.2,SSE,8.1,-,N/A,Fog-Rain,Rain,160,2012-10-08 03:50:00
5:20 AM,60.8,60.8,100,29.92,0.6,SSE,6.9,-,N/A,Fog-Rain,Heavy Rain,160,2012-10-08 04:20:00
5:50 AM,60.8,60.8,100,29.92,0.1,SSE,8.1,-,N/A,Fog-Rain,Light Rain,160,2012-10-08 04:50:00
6:20 AM,60.8,60.8,100,29.92,0.1,South,8.1,-,N/A,Fog-Rain,Light Rain,170,2012-10-08 05:20:00
6:50 AM,60.8,60.8,100,29.92,0.2,SW,11.5,-,N/A,Fog-Rain,Light Rain,220,2012-10-08 05:50:00
7:00 AM,61,61,100,29.92,0,SW,11.5,,,Rain,Light Rain,220,2012-10-08 06:00:00
7:20 AM,60.8,60.8,100,29.89,0.2,SW,13.8,-,N/A,Fog-Rain,Light Rain,230,2012-10-08 06:20:00
7:50 AM,60.8,60.8,100,29.89,0.1,SW,15.0,-,N/A,Fog,Light Drizzle,230,2012-10-08 06:50:00
8:20 AM,60.8,60.8,100,29.92,0.1,SW,16.1,-,N/A,Fog,Light Drizzle,230,2012-10-08 07:20:00
8:50 AM,60.8,60.8,100,29.92,0.1,SW,18.4,-,N/A,Fog,Light Drizzle,230,2012-10-08 07:50:00
9:20 AM,60.8,60.8,100,29.92,0.1,SW,13.8,-,N/A,Fog,Fog,230,2012-10-08 08:20:00
9:50 AM,60.8,60.8,100,29.92,3.1,SW,17.3,-,N/A,,Mostly Cloudy,230,2012-10-08 08:50:00
10:00 AM,61,61,100,29.94,3,SW,17.3,,,Fog,Light Fog,230,2012-10-08 09:00:00
10:20 AM,60.8,60.8,100,29.92,1.2,SW,15.0,-,N/A,,Light Drizzle,230,2012-10-08 09:20:00
10:50 AM,60.8,60.8,100,29.92,0.9,SW,15.0,-,N/A,,Mostly Cloudy,230,2012-10-08 09:50:00
11:20 AM,60.8,60.8,100,29.92,0.8,SW,15.0,-,N/A,,Mist,230,2012-10-08 10:20:00
11:50 AM,60.8,60.8,100,29.92,0.1,SW,13.8,-,N/A,Fog,Fog,230,2012-10-08 10:50:00
12:20 PM,60.8,60.8,100,29.92,0.1,SW,16.1,-,N/A,Fog,Fog,230,2012-10-08 11:20:00
12:50 PM,60.8,60.8,100,29.92,0.1,SW,15.0,-,N/A,Fog,Fog,230,2012-10-08 11:50:00
1:00 PM,62,62,98,29.92,0,SW,15.0,,,Fog,Partial Fog,230,2012-10-08 12:00:00
1:20 PM,60.8,60.8,100,29.92,0.1,WSW,13.8,-,N/A,Fog,Fog,240,2012-10-08 12:20:00
1:50 PM,60.8,60.8,100,29.89,0.1,WSW,13.8,-,N/A,Fog,Fog,240,2012-10-08 12:50:00
2:20 PM,60.8,60.8,100,29.89,0.1,WSW,15.0,-,N/A,Fog,Fog,240,2012-10-08 13:20:00
2:50 PM,62.6,62.6,100,29.89,0.2,WSW,15.0,-,N/A,Fog,Fog,250,2012-10-08 13:50:00
3:20 PM,60.8,60.8,100,29.89,0.1,West,12.7,-,N/A,Fog,Fog,260,2012-10-08 14:20:00
3:50 PM,60.8,60.8,100,29.89,0.1,West,13.8,-,N/A,Fog,Fog,260,2012-10-08 14:50:00
4:00 PM,61,61,100,29.88,0,West,13.8,,,Fog,Partial Fog,260,2012-10-08 15:00:00
4:20 PM,60.8,60.8,100,29.86,0.1,West,11.5,-,N/A,Fog,Fog,260,2012-10-08 15:20:00
4:50 PM,60.8,60.8,100,29.86,0.1,West,10.4,-,N/A,Fog,Fog,270,2012-10-08 15:50:00
5:20 PM,60.8,60.8,100,29.89,0.1,West,11.5,-,N/A,Fog,Fog,270,2012-10-08 16:20:00
5:50 PM,60.8,60.8,100,29.89,0.1,West,8.1,-,N/A,Fog,Fog,260,2012-10-08 16:50:00
6:20 PM,60.8,60.8,100,29.89,0.1,West,8.1,-,N/A,Fog,Light Drizzle,260,2012-10-08 17:20:00
6:50 PM,60.8,60.8,100,29.89,0.1,WSW,6.9,-,N/A,Fog,Light Drizzle,250,2012-10-08 17:50:00
7:00 PM,60,60,100,29.91,0,WSW,6.9,,,Rain,Light Drizzle,250,2012-10-08 18:00:00
7:20 PM,60.8,60.8,100,29.92,0.2,West,8.1,-,N/A,Fog,Light Drizzle,260,2012-10-08 18:20:00
7:50 PM,60.8,60.8,100,29.92,0.2,West,8.1,-,N/A,Fog,Light Drizzle,260,2012-10-08 18:50:00
8:20 PM,60.8,60.8,100,29.92,0.6,West,6.9,-,N/A,Fog,Fog,260,2012-10-08 19:20:00
8:50 PM,60.8,60.8,100,29.92,0.1,West,10.4,-,N/A,Fog,Light Drizzle,270,2012-10-08 19:50:00
9:20 PM,60.8,60.8,100,29.92,0.1,West,10.4,-,N/A,Fog,Light Drizzle,270,2012-10-08 20:20:00
9:50 PM,60.8,60.8,100,29.92,0.1,West,9.2,-,N/A,Fog,Fog,270,2012-10-08 20:50:00
10:00 PM,60,60,100,29.94,0,West,9.2,,,Fog,Partial Fog,270,2012-10-08 21:00:00